| time (UTC) | temp F | wind direction | speed MPH | gust MPH | rain 1hr in | rain 24hr in | rain mn in | humidity % | barometer mb |
| 20260507020543 | 64 | 233 | 0.0 | 0.0 | 0.00 | 1.96 | 1.96 | 99 | 1012.7 |
| 20260507020039 | 64 | 228 | 0.0 | 0.0 | 0.00 | 1.96 | 1.96 | 99 | 1012.8 |
| 20260507015538 | 64 | 227 | 0.0 | 0.0 | 0.00 | 1.96 | 1.96 | 99 | 1012.8 |
| 20260507015035 | 64 | 223 | 0.0 | 0.0 | 0.00 | 1.96 | 1.96 | 99 | 1012.7 |
| 20260507014531 | 64 | 226 | 1.0 | 1.0 | 0.00 | 1.96 | 1.96 | 99 | 1012.3 |
| 20260507014027 | 64 | 227 | 0.0 | 0.0 | 0.00 | 1.96 | 1.96 | 99 | 1013.1 |
| 20260507013524 | 64 | 227 | 0.0 | 0.0 | 0.00 | 1.96 | 1.96 | 99 | 1013.0 |
| 20260507013021 | 64 | 225 | 0.0 | 0.0 | 0.00 | 1.96 | 1.96 | 99 | 1012.9 |
| 20260507012519 | 64 | 223 | 0.0 | 0.0 | 0.00 | 1.96 | 1.96 | 99 | 1012.7 |
| 20260507012015 | 64 | 227 | 0.0 | 0.0 | 0.00 | 1.96 | 1.96 | 99 | 1013.0 |
| 20260507011512 | 64 | 228 | 0.0 | 0.0 | 0.00 | 1.96 | 1.96 | 99 | 1013.3 |
| 20260507011008 | 64 | 228 | 0.0 | 0.0 | 0.00 | 1.96 | 1.96 | 99 | 1013.1 |
| 20260507010503 | 64 | 229 | 0.0 | 0.0 | 0.00 | 1.96 | 1.96 | 99 | 1012.9 |
| 20260507005959 | 64 | 227 | 0.0 | 0.0 | 0.00 | 1.96 | 1.96 | 99 | 1012.9 |
| 20260507005457 | 64 | 226 | 0.0 | 0.0 | 0.00 | 1.96 | 1.96 | 99 | 1012.5 |
| 20260507004953 | 64 | 221 | 0.0 | 0.0 | 0.00 | 1.96 | 1.96 | 99 | 1012.3 |
| 20260507004450 | 64 | 226 | 0.0 | 0.0 | 0.00 | 1.96 | 1.96 | 99 | 1012.2 |
| 20260507003948 | 64 | 224 | 0.0 | 0.0 | 0.05 | 1.96 | 1.96 | 99 | 1012.3 |
| 20260507003443 | 64 | 228 | 0.0 | 0.0 | 0.05 | 1.96 | 1.96 | 99 | 1012.8 |
| 20260507002938 | 64 | 228 | 0.0 | 0.0 | 0.00 | 1.95 | 1.95 | 99 | 1012.9 |
| 20260507002435 | 64 | 225 | 0.0 | 1.0 | 0.00 | 1.95 | 1.95 | 99 | 1012.5 |
| 20260507001932 | 64 | 222 | 0.0 | 1.0 | 0.00 | 1.95 | 1.95 | 99 | 1012.2 |
| 20260507001428 | 64 | 226 | 0.0 | 0.0 | 0.07 | 1.95 | 1.95 | 99 | 1012.1 |
| 20260507000926 | 64 | 233 | 1.0 | 1.0 | 0.07 | 1.95 | 1.95 | 99 | 1011.5 |
| 20260507000421 | 64 | 226 | 0.0 | 2.0 | 0.17 | 1.94 | 1.94 | 99 | 1011.8 |
| 20260506235917 | 64 | 213 | 1.0 | 1.0 | 0.35 | 1.94 | 1.94 | 99 | 1012.4 |
| 20260506235415 | 64 | 235 | 0.0 | 1.0 | 0.12 | 1.90 | 1.90 | 99 | 1013.4 |
| 20260506234910 | 64 | 226 | 0.0 | 1.0 | 0.00 | 1.88 | 1.88 | 99 | 1013.1 |
| 20260506234408 | 64 | 223 | 0.0 | 0.0 | 0.07 | 1.88 | 1.88 | 99 | 1012.7 |
| 20260506233905 | 64 | 229 | 0.0 | 0.0 | 0.07 | 1.88 | 1.88 | 99 | 1012.8 |
| 20260506233401 | 64 | 247 | 0.0 | 1.0 | 0.05 | 1.87 | 1.87 | 99 | 1012.8 |
| 20260506232858 | 64 | 215 | 1.0 | 1.0 | 0.12 | 1.87 | 1.87 | 99 | 1012.5 |
| 20260506232354 | 64 | 232 | 0.0 | 1.0 | 0.24 | 1.86 | 1.86 | 99 | 1013.0 |
| 20260506231850 | 64 | 231 | 0.0 | 1.0 | 0.59 | 1.85 | 1.85 | 99 | 1012.5 |
| 20260506231348 | 64 | 239 | 1.0 | 1.0 | 0.78 | 1.82 | 1.82 | 99 | 1012.7 |
| 20260506230845 | 64 | 223 | 0.0 | 2.0 | 0.52 | 1.74 | 1.74 | 99 | 1013.1 |
| 20260506230342 | 64 | 195 | 1.0 | 1.0 | 0.12 | 1.66 | 1.66 | 99 | 1012.9 |
| 20260506225838 | 64 | 220 | 1.0 | 1.0 | 0.07 | 1.64 | 1.64 | 99 | 1012.8 |
| 20260506225336 | 64 | 203 | 1.0 | 2.0 | 0.07 | 1.64 | 1.64 | 99 | 1012.2 |
| 20260506224833 | 64 | 228 | 0.0 | 0.0 | 0.05 | 1.63 | 1.63 | 99 | 1012.0 |
| 20260506224330 | 64 | 222 | 0.0 | 0.0 | 0.24 | 1.63 | 1.63 | 99 | 1012.2 |
| 20260506223826 | 64 | 225 | 0.0 | 2.0 | 0.24 | 1.62 | 1.62 | 99 | 1012.4 |
| 20260506223321 | 64 | 205 | 1.0 | 1.0 | 0.28 | 1.59 | 1.59 | 99 | 1012.2 |
| 20260506222819 | 64 | 224 | 0.0 | 2.0 | 0.42 | 1.58 | 1.58 | 99 | 1011.9 |
| 20260506222314 | 65 | 226 | 0.0 | 0.0 | 0.38 | 1.54 | 1.54 | 99 | 1011.6 |
| 20260506221812 | 65 | 226 | 0.0 | 0.0 | 0.59 | 1.51 | 1.51 | 99 | 1011.7 |
| 20260506221310 | 65 | 292 | 2.0 | 2.0 | 1.02 | 1.48 | 1.48 | 99 | 1012.0 |
| 20260506220807 | 65 | 227 | 0.0 | 0.0 | 0.66 | 1.39 | 1.39 | 99 | 1012.4 |
| 20260506220302 | 65 | 226 | 0.0 | 1.0 | 0.54 | 1.31 | 1.31 | 99 | 1012.1 |
| 20260506215759 | 65 | 223 | 0.0 | 0.0 | 0.61 | 1.28 | 1.28 | 99 | 1011.7 |
| 20260506215254 | 65 | 227 | 0.0 | 0.0 | 0.24 | 1.21 | 1.21 | 99 | 1011.7 |
| 20260506214750 | 65 | 225 | 0.0 | 0.0 | 0.05 | 1.18 | 1.18 | 99 | 1012.1 |
| 20260506214248 | 65 | 225 | 0.0 | 0.0 | 0.07 | 1.17 | 1.17 | 99 | 1011.7 |
| 20260506213746 | 65 | 229 | 0.0 | 0.0 | 0.00 | 1.16 | 1.16 | 99 | 1011.6 |
| 20260506213243 | 65 | 231 | 0.0 | 0.0 | 0.05 | 1.16 | 1.16 | 99 | 1011.8 |
| 20260506212740 | 65 | 223 | 0.0 | 1.0 | 0.05 | 1.16 | 1.16 | 99 | 1011.3 |
| 20260506212235 | 65 | 224 | 0.0 | 0.0 | 0.00 | 1.15 | 1.15 | 99 | 1011.5 |
| 20260506211725 | 65 | 226 | 0.0 | 0.0 | 0.00 | 1.15 | 1.15 | 99 | 1011.8 |
| 20260506211222 | 65 | 214 | 0.0 | 0.0 | 0.00 | 1.15 | 1.15 | 99 | 1011.5 |
| 20260506210719 | 65 | 228 | 0.0 | 0.0 | 0.14 | 1.15 | 1.15 | 99 | 1011.4 |
| 20260506210216 | 65 | 229 | 0.0 | 0.0 | 0.19 | 1.15 | 1.15 | 99 | 1012.2 |
| 20260506205713 | 65 | 224 | 1.0 | 2.0 | 0.12 | 1.13 | 1.13 | 99 | 1012.4 |
| 20260506205208 | 65 | 216 | 0.0 | 1.0 | 0.00 | 1.11 | 1.11 | 99 | 1012.4 |
| 20260506204706 | 66 | 227 | 0.0 | 0.0 | 0.05 | 1.11 | 1.11 | 99 | 1012.1 |
| 20260506204203 | 66 | 223 | 0.0 | 1.0 | 0.05 | 1.11 | 1.11 | 99 | 1012.2 |
| 20260506203701 | 66 | 250 | 1.0 | 1.0 | 0.00 | 1.10 | 1.10 | 99 | 1012.2 |
| 20260506203157 | 66 | 226 | 0.0 | 0.0 | 0.00 | 1.10 | 1.10 | 99 | 1012.3 |
| 20260506202655 | 66 | 224 | 0.0 | 1.0 | 0.00 | 1.10 | 1.10 | 99 | 1012.4 |
| 20260506202151 | 66 | 223 | 0.0 | 1.0 | 0.07 | 1.10 | 1.10 | 99 | 1012.3 |
| 20260506201648 | 66 | 220 | 1.0 | 2.0 | 0.59 | 1.09 | 1.09 | 99 | 1012.5 |
| 20260506201144 | 66 | 228 | 0.0 | 0.0 | 0.85 | 1.08 | 1.08 | 99 | 1012.4 |
| 20260506200641 | 66 | 231 | 1.0 | 9.0 | 0.24 | 0.98 | 0.98 | 99 | 1013.1 |
| 20260506200138 | 66 | 199 | 2.0 | 3.0 | 0.05 | 0.94 | 0.94 | 99 | 1012.8 |
| 20260506195635 | 67 | 212 | 1.0 | 1.0 | 0.05 | 0.94 | 0.94 | 99 | 1012.3 |
| 20260506195131 | 67 | 225 | 0.0 | 1.0 | 0.07 | 0.93 | 0.93 | 99 | 1012.4 |
| 20260506194629 | 67 | 237 | 0.0 | 1.0 | 0.07 | 0.93 | 0.93 | 99 | 1012.3 |
| 20260506194125 | 67 | 232 | 0.0 | 1.0 | 0.00 | 0.92 | 0.92 | 99 | 1012.7 |
| 20260506193623 | 67 | 213 | 1.0 | 2.0 | 0.00 | 0.92 | 0.92 | 99 | 1012.5 |
| 20260506193120 | 67 | 221 | 0.0 | 0.0 | 0.00 | 0.92 | 0.92 | 99 | 1012.7 |
| 20260506192616 | 67 | 222 | 0.0 | 1.0 | 0.05 | 0.92 | 0.92 | 99 | 1012.9 |
| 20260506192112 | 67 | 226 | 1.0 | 2.0 | 0.24 | 0.92 | 0.92 | 99 | 1012.8 |
| 20260506191609 | 68 | 226 | 0.0 | 0.0 | 0.42 | 0.90 | 0.90 | 99 | 1012.9 |
| 20260506191105 | 68 | 195 | 1.0 | 2.0 | 0.35 | 0.88 | 0.88 | 99 | 1013.2 |
| 20260506190603 | 68 | 186 | 1.0 | 1.0 | 0.05 | 0.83 | 0.83 | 99 | 1013.3 |
| 20260506190059 | 68 | 220 | 0.0 | 0.0 | 0.07 | 0.82 | 0.82 | 99 | 1012.9 |
| 20260506185557 | 67 | 228 | 0.0 | 0.0 | 0.07 | 0.82 | 0.82 | 99 | 1012.7 |
| 20260506185053 | 68 | 235 | 0.0 | 0.0 | 0.05 | 0.81 | 0.81 | 99 | 1012.5 |
| 20260506184551 | 68 | 206 | 1.0 | 2.0 | 0.05 | 0.81 | 0.81 | 99 | 1012.7 |
| 20260506184048 | 68 | 226 | 0.0 | 0.0 | 0.07 | 0.80 | 0.80 | 99 | 1012.3 |
| 20260506183543 | 68 | 227 | 0.0 | 1.0 | 0.12 | 0.80 | 0.80 | 99 | 1012.5 |
| 20260506183040 | 68 | 226 | 1.0 | 2.0 | 0.05 | 0.79 | 0.79 | 99 | 1013.1 |
| 20260506182538 | 68 | 216 | 1.0 | 1.0 | 0.07 | 0.78 | 0.78 | 98 | 1013.5 |
| 20260506182035 | 68 | 231 | 0.0 | 0.0 | 0.35 | 0.77 | 0.77 | 97 | 1013.1 |
| 20260506181533 | 68 | 224 | 0.0 | 1.0 | 0.92 | 0.76 | 0.76 | 97 | 1013.2 |
| 20260506181029 | 69 | 225 | 0.0 | 1.0 | 0.66 | 0.70 | 0.70 | 96 | 1013.4 |
| 20260506180526 | 69 | 228 | 0.0 | 0.0 | 0.12 | 0.61 | 0.61 | 94 | 1014.1 |
| 20260506180022 | 69 | 216 | 1.0 | 1.0 | 0.00 | 0.59 | 0.59 | 93 | 1013.6 |
| 20260506175519 | 69 | 220 | 0.0 | 1.0 | 0.00 | 0.59 | 0.59 | 93 | 1013.6 |
| 20260506175015 | 69 | 213 | 0.0 | 3.0 | 0.00 | 0.59 | 0.59 | 92 | 1013.7 |
| 20260506174514 | 70 | 220 | 2.0 | 3.0 | 0.00 | 0.59 | 0.59 | 92 | 1013.7 |
| 20260506174010 | 70 | 216 | 3.0 | 5.0 | 0.00 | 0.59 | 0.59 | 92 | 1013.3 |
| 20260506173508 | 70 | 235 | 0.0 | 0.0 | 0.00 | 0.59 | 0.59 | 92 | 1013.4 |
| 20260506173004 | 70 | 225 | 0.0 | 1.0 | 0.00 | 0.59 | 0.59 | 91 | 1013.4 |
| 20260506172502 | 70 | 185 | 3.0 | 7.0 | 0.00 | 0.59 | 0.59 | 91 | 1013.5 |
| 20260506171958 | 71 | 175 | 1.0 | 2.0 | 0.00 | 0.59 | 0.59 | 91 | 1013.1 |
| 20260506171455 | 70 | 173 | 2.0 | 6.0 | 0.00 | 0.59 | 0.59 | 90 | 1013.0 |
| 20260506170947 | 70 | 201 | 3.0 | 7.0 | 0.00 | 0.59 | 0.59 | 90 | 1013.1 |
| 20260506170443 | 70 | 227 | 1.0 | 5.0 | 0.00 | 0.59 | 0.59 | 90 | 1013.3 |
| 20260506165936 | 70 | 211 | 2.0 | 3.0 | 0.00 | 0.59 | 0.59 | 90 | 1013.1 |
| 20260506165434 | 71 | 217 | 2.0 | 8.0 | 0.00 | 0.59 | 0.59 | 90 | 1013.0 |
| 20260506164929 | 71 | 173 | 3.0 | 5.0 | 0.00 | 0.59 | 0.59 | 91 | 1012.8 |
| 20260506164426 | 70 | 221 | 1.0 | 2.0 | 0.00 | 0.59 | 0.59 | 92 | 1012.7 |
| 20260506163919 | 70 | 217 | 1.0 | 2.0 | 0.00 | 0.59 | 0.59 | 93 | 1012.9 |
| 20260506163419 | 69 | 183 | 3.0 | 6.0 | 0.00 | 0.59 | 0.59 | 94 | 1012.8 |
| 20260506162914 | 69 | 223 | 0.0 | 2.0 | 0.00 | 0.59 | 0.59 | 95 | 1012.7 |
| 20260506162412 | 68 | 210 | 2.0 | 3.0 | 0.00 | 0.59 | 0.59 | 96 | 1012.7 |
| 20260506161904 | 68 | 223 | 1.0 | 5.0 | 0.00 | 0.59 | 0.59 | 97 | 1012.9 |
| 20260506161402 | 68 | 189 | 3.0 | 3.0 | 0.00 | 0.59 | 0.59 | 97 | 1013.2 |
| 20260506160859 | 68 | 225 | 1.0 | 1.0 | 0.00 | 0.59 | 0.59 | 98 | 1013.0 |
| 20260506160356 | 68 | 220 | 0.0 | 0.0 | 0.00 | 0.59 | 0.59 | 98 | 1012.9 |
| 20260506155854 | 67 | 228 | 0.0 | 1.0 | 0.00 | 0.59 | 0.59 | 98 | 1012.9 |
| 20260506155350 | 67 | 220 | 0.0 | 5.0 | 0.00 | 0.59 | 0.59 | 99 | 1012.9 |
| 20260506153508 | 66 | 195 | 1.0 | 2.0 | 0.00 | 0.59 | 0.59 | 99 | 1013.3 |
| 20260506153005 | 66 | 213 | 0.0 | 2.0 | 0.00 | 0.59 | 0.59 | 99 | 1013.4 |
| 20260506152502 | 66 | 223 | 0.0 | 0.0 | 0.00 | 0.59 | 0.59 | 99 | 1013.7 |
| 20260506152000 | 66 | 231 | 0.0 | 0.0 | 0.00 | 0.59 | 0.59 | 99 | 1013.9 |
| 20260506151458 | 65 | 213 | 1.0 | 1.0 | 0.00 | 0.59 | 0.59 | 99 | 1013.6 |
| 20260506150955 | 65 | 217 | 0.0 | 0.0 | 0.00 | 0.59 | 0.59 | 99 | 1013.9 |
| 20260506150450 | 65 | 225 | 0.0 | 1.0 | 0.00 | 0.59 | 0.59 | 99 | 1013.7 |
| 20260506145948 | 65 | 221 | 2.0 | 2.0 | 0.00 | 0.59 | 0.59 | 99 | 1013.7 |
| 20260506145444 | 65 | 223 | 0.0 | 0.0 | 0.05 | 0.59 | 0.59 | 99 | 1013.7 |
| 20260506144942 | 65 | 165 | 1.0 | 3.0 | 0.12 | 0.59 | 0.59 | 99 | 1013.5 |
| 20260506144438 | 65 | 209 | 2.0 | 3.0 | 0.12 | 0.58 | 0.58 | 99 | 1013.0 |
| 20260506143937 | 65 | 227 | 0.0 | 0.0 | 0.12 | 0.57 | 0.57 | 99 | 1013.1 |
| 20260506143433 | 64 | 225 | 0.0 | 1.0 | 0.12 | 0.55 | 0.55 | 99 | 1014.1 |
| 20260506142932 | 64 | 231 | 0.0 | 0.0 | 0.31 | 0.55 | 0.55 | 99 | 1014.0 |
| 20260506142429 | 64 | 222 | 1.0 | 2.0 | 0.42 | 0.53 | 0.53 | 99 | 1014.4 |
| 20260506141927 | 64 | 212 | 1.0 | 3.0 | 0.31 | 0.49 | 0.49 | 99 | 1014.9 |
| 20260506141425 | 65 | 216 | 0.0 | 1.0 | 0.31 | 0.45 | 0.45 | 99 | 1015.0 |
| 20260506140923 | 65 | 227 | 0.0 | 1.0 | 0.61 | 0.43 | 0.43 | 99 | 1014.3 |
| 20260506140420 | 65 | 228 | 0.0 | 2.0 | 0.50 | 0.39 | 0.39 | 99 | 1014.3 |
| 20260506135916 | 65 | 237 | 1.0 | 1.0 | 0.24 | 0.33 | 0.33 | 99 | 1014.8 |
| 20260506135414 | 65 | 227 | 0.0 | 1.0 | 0.28 | 0.31 | 0.31 | 99 | 1014.2 |
| 20260506134910 | 65 | 231 | 0.0 | 0.0 | 0.26 | 0.28 | 0.28 | 99 | 1014.1 |
| 20260506134406 | 65 | 227 | 0.0 | 0.0 | 0.19 | 0.25 | 0.25 | 99 | 1013.9 |
| 20260506133903 | 65 | 227 | 0.0 | 0.0 | 0.07 | 0.23 | 0.23 | 99 | 1014.1 |
| 20260506133400 | 65 | 228 | 0.0 | 0.0 | 0.00 | 0.22 | 0.22 | 99 | 1014.0 |
| 20260506132856 | 64 | 233 | 0.0 | 0.0 | 0.05 | 0.22 | 0.22 | 99 | 1013.7 |
| 20260506132353 | 64 | 226 | 0.0 | 0.0 | 0.17 | 0.22 | 0.22 | 99 | 1013.6 |
| 20260506131852 | 64 | 224 | 0.0 | 0.0 | 0.12 | 0.20 | 0.20 | 99 | 1013.3 |
| 20260506131348 | 64 | 230 | 0.0 | 0.0 | 0.12 | 0.19 | 0.19 | 99 | 1013.5 |
| 20260506130845 | 64 | 231 | 0.0 | 0.0 | 0.05 | 0.18 | 0.18 | 99 | 1013.4 |
| 20260506130341 | 64 | 226 | 0.0 | 0.0 | 0.12 | 0.17 | 0.17 | 99 | 1013.5 |
| 20260506125839 | 64 | 229 | 0.0 | 0.0 | 0.31 | 0.17 | 0.17 | 98 | 1013.1 |
| 20260506125337 | 64 | 220 | 0.0 | 1.0 | 0.31 | 0.15 | 0.15 | 98 | 1012.9 |
| 20260506124835 | 64 | 226 | 0.0 | 1.0 | 0.42 | 0.12 | 0.12 | 98 | 1013.2 |
| 20260506124332 | 65 | 223 | 0.0 | 0.0 | 0.35 | 0.10 | 0.10 | 97 | 1013.0 |
| 20260506123830 | 65 | 218 | 0.0 | 0.0 | 0.17 | 0.05 | 0.05 | 97 | 1013.0 |
| 20260506123328 | 65 | 224 | 0.0 | 0.0 | 0.12 | 0.04 | 0.04 | 96 | 1012.4 |
| 20260506122825 | 65 | 224 | 0.0 | 1.0 | 0.00 | 0.02 | 0.02 | 96 | 1012.2 |
| 20260506122322 | 65 | 223 | 0.0 | 0.0 | 0.00 | 0.02 | 0.02 | 96 | 1012.3 |
| 20260506121820 | 65 | 216 | 0.0 | 0.0 | 0.00 | 0.02 | 0.02 | 96 | 1012.4 |
| 20260506121317 | 65 | 227 | 0.0 | 0.0 | 0.07 | 0.02 | 0.02 | 96 | 1012.1 |
| 20260506120814 | 65 | 228 | 0.0 | 0.0 | 0.07 | 0.02 | 0.02 | 95 | 1012.4 |
| 20260506120312 | 65 | 236 | 0.0 | 0.0 | 0.00 | 0.01 | 0.01 | 95 | 1012.1 |
| 20260506115809 | 65 | 222 | 0.0 | 0.0 | 0.00 | 0.01 | 0.01 | 94 | 1011.9 |
| 20260506115307 | 66 | 222 | 0.0 | 0.0 | 0.00 | 0.01 | 0.01 | 93 | 1011.7 |
| 20260506114805 | 66 | 220 | 0.0 | 0.0 | 0.00 | 0.01 | 0.01 | 92 | 1012.1 |
| 20260506114302 | 66 | 222 | 1.0 | 1.0 | 0.00 | 0.01 | 0.01 | 92 | 1012.2 |
| 20260506113801 | 66 | 226 | 0.0 | 1.0 | 0.00 | 0.01 | 0.01 | 91 | 1011.6 |
| 20260506113258 | 66 | 216 | 1.0 | 2.0 | 0.00 | 0.01 | 0.01 | 91 | 1012.0 |
| 20260506112754 | 66 | 220 | 0.0 | 0.0 | 0.00 | 0.01 | 0.01 | 91 | 1011.9 |
| 20260506112251 | 66 | 228 | 0.0 | 0.0 | 0.07 | 0.01 | 0.01 | 90 | 1011.9 |
| 20260506111749 | 66 | 221 | 1.0 | 2.0 | 0.07 | 0.01 | 0.01 | 89 | 1011.9 |
| 20260506111247 | 66 | 221 | 1.0 | 1.0 | 0.00 | 0.00 | 0.00 | 90 | 1011.4 |
| 20260506110743 | 66 | 222 | 0.0 | 0.0 | 0.00 | 0.00 | 0.00 | 90 | 1011.6 |
| 20260506110241 | 66 | 223 | 0.0 | 1.0 | 0.00 | 0.00 | 0.00 | 90 | 1011.8 |
| 20260506105737 | 67 | 223 | 0.0 | 1.0 | 0.00 | 0.00 | 0.00 | 88 | 1011.9 |
| 20260506105235 | 67 | 228 | 0.0 | 0.0 | 0.00 | 0.00 | 0.00 | 86 | 1011.8 |
| 20260506104732 | 68 | 223 | 0.0 | 0.0 | 0.00 | 0.00 | 0.00 | 85 | 1011.3 |
| 20260506104230 | 67 | 214 | 0.0 | 1.0 | 0.00 | 0.00 | 0.00 | 85 | 1011.1 |
| 20260506103727 | 67 | 222 | 0.0 | 1.0 | 0.00 | 0.00 | 0.00 | 86 | 1011.4 |
| 20260506103224 | 66 | 204 | 2.0 | 2.0 | 0.00 | 0.00 | 0.00 | 88 | 1011.2 |
| 20260506102722 | 67 | 218 | 1.0 | 1.0 | 0.00 | 0.00 | 0.00 | 87 | 1011.1 |
| 20260506102220 | 67 | 228 | 0.0 | 0.0 | 0.00 | 0.00 | 0.00 | 85 | 1011.0 |
| 20260506101716 | 68 | 282 | 1.0 | 2.0 | 0.00 | 0.00 | 0.00 | 84 | 1010.7 |
| 20260506101212 | 68 | 219 | 1.0 | 2.0 | 0.00 | 0.00 | 0.00 | 81 | 1010.8 |
| 20260506100711 | 69 | 225 | 0.0 | 1.0 | 0.00 | 0.00 | 0.00 | 80 | 1010.8 |
| 20260506100209 | 69 | 163 | 2.0 | 2.0 | 0.00 | 0.00 | 0.00 | 80 | 1010.9 |
| 20260506095707 | 69 | 214 | 2.0 | 2.0 | 0.00 | 0.00 | 0.00 | 79 | 1011.1 |
| 20260506095203 | 69 | 175 | 2.0 | 3.0 | 0.00 | 0.00 | 0.00 | 79 | 1011.2 |
| 20260506094700 | 69 | 207 | 3.0 | 6.0 | 0.00 | 0.00 | 0.00 | 78 | 1011.1 |
| 20260506094158 | 69 | 208 | 3.0 | 6.0 | 0.00 | 0.00 | 0.00 | 77 | 1010.6 |
| 20260506093657 | 69 | 221 | 2.0 | 7.0 | 0.00 | 0.00 | 0.00 | 77 | 1010.8 |
| 20260506093153 | 69 | 198 | 1.0 | 2.0 | 0.00 | 0.00 | 0.00 | 77 | 1010.8 |
| 20260506092651 | 69 | 215 | 0.0 | 2.0 | 0.00 | 0.00 | 0.00 | 77 | 1010.9 |
| 20260506092148 | 69 | 220 | 1.0 | 3.0 | 0.00 | 0.00 | 0.00 | 77 | 1010.9 |
| 20260506091646 | 69 | 225 | 1.0 | 5.0 | 0.00 | 0.00 | 0.00 | 77 | 1011.1 |
| 20260506091143 | 70 | 214 | 0.0 | 1.0 | 0.00 | 0.00 | 0.00 | 77 | 1010.8 |
| 20260506090641 | 70 | 190 | 2.0 | 5.0 | 0.00 | 0.00 | 0.00 | 76 | 1010.9 |
| 20260506090137 | 70 | 212 | 1.0 | 3.0 | 0.00 | 0.00 | 0.00 | 76 | 1010.8 |
| 20260506085634 | 70 | 210 | 0.0 | 1.0 | 0.00 | 0.00 | 0.00 | 76 | 1010.9 |
| 20260506085131 | 70 | 211 | 1.0 | 2.0 | 0.00 | 0.00 | 0.00 | 76 | 1010.9 |
| 20260506084627 | 70 | 229 | 0.0 | 2.0 | 0.00 | 0.00 | 0.00 | 76 | 1010.8 |
| 20260506084124 | 70 | 210 | 1.0 | 5.0 | 0.00 | 0.00 | 0.00 | 76 | 1010.9 |
| 20260506083621 | 69 | 222 | 0.0 | 1.0 | 0.00 | 0.00 | 0.00 | 76 | 1010.7 |
| 20260506083119 | 69 | 220 | 1.0 | 2.0 | 0.00 | 0.00 | 0.00 | 77 | 1010.9 |
| 20260506082615 | 69 | 218 | 1.0 | 2.0 | 0.00 | 0.00 | 0.00 | 77 | 1010.5 |
| 20260506082111 | 69 | 220 | 0.0 | 1.0 | 0.00 | 0.00 | 0.00 | 76 | 1010.8 |
| 20260506081609 | 70 | 216 | 0.0 | 1.0 | 0.00 | 0.00 | 0.00 | 76 | 1010.8 |
| 20260506081107 | 70 | 222 | 0.0 | 1.0 | 0.00 | 0.00 | 0.00 | 75 | 1010.5 |
| 20260506080604 | 70 | 222 | 0.0 | 3.0 | 0.00 | 0.00 | 0.00 | 75 | 1010.6 |
| 20260506073044 | 69 | 224 | 0.0 | 1.0 | 0.00 | 0.00 | 0.00 | 75 | 1010.4 |
| 20260506072541 | 69 | 222 | 0.0 | 1.0 | 0.00 | 0.00 | 0.00 | 76 | 1010.3 |
| 20260506072039 | 69 | 221 | 1.0 | 1.0 | 0.00 | 0.00 | 0.00 | 75 | 1010.5 |
| 20260506071537 | 69 | 219 | 1.0 | 3.0 | 0.00 | 0.00 | 0.00 | 75 | 1010.4 |
| 20260506071034 | 69 | 222 | 0.0 | 1.0 | 0.00 | 0.00 | 0.00 | 75 | 1010.6 |
| 20260506070531 | 69 | 218 | 1.0 | 2.0 | 0.00 | 0.00 | 0.00 | 75 | 1010.3 |
| 20260506062509 | 66 | 222 | 0.0 | 0.0 | 0.00 | 0.00 | 0.00 | 79 | 1010.8 |
| 20260506062005 | 66 | 218 | 0.0 | 1.0 | 0.00 | 0.00 | 0.00 | 78 | 1011.1 |
| 20260506061501 | 66 | 228 | 0.0 | 0.0 | 0.00 | 0.00 | 0.00 | 78 | 1011.2 |
| 20260506060959 | 66 | 227 | 0.0 | 0.0 | 0.00 | 0.00 | 0.00 | 78 | 1011.3 |
| 20260506060457 | 66 | 227 | 0.0 | 0.0 | 0.00 | 0.00 | 0.00 | 77 | 1011.5 |
| 20260506050926 | 66 | 229 | 0.0 | 0.0 | 0.00 | 0.00 | 0.00 | 79 | 1011.8 |
| 20260506050424 | 66 | 230 | 0.0 | 0.0 | 0.00 | 0.00 | 0.00 | 77 | 1011.6 |
| 20260506044914 | 66 | 223 | 0.0 | 2.0 | 0.00 | 0.00 | 0.00 | 74 | 1011.4 |
| 20260506044412 | 66 | 221 | 0.0 | 0.0 | 0.00 | 0.00 | 0.00 | 76 | 1011.6 |
| 20260506043909 | 66 | 221 | 0.0 | 0.0 | 0.00 | 0.00 | 0.00 | 76 | 1011.8 |
| 20260506043406 | 66 | 221 | 0.0 | 0.0 | 0.00 | 0.00 | 0.00 | 77 | 1011.6 |
| 20260506042904 | 66 | 221 | 0.0 | 0.0 | 0.00 | 0.00 | 0.00 | 77 | 1011.7 |
| 20260506042403 | 67 | 221 | 0.0 | 1.0 | 0.00 | 0.00 | 0.00 | 75 | 1011.6 |
| 20260506041901 | 66 | 221 | 0.0 | 0.0 | 0.00 | 0.00 | 0.00 | 74 | 1011.7 |
| 20260506041358 | 67 | 221 | 0.0 | 0.0 | 0.00 | 0.00 | 0.00 | 75 | 1011.6 |
| 20260506040855 | 67 | 221 | 0.0 | 0.0 | 0.00 | 0.00 | 0.00 | 73 | 1011.7 |
| 20260506040352 | 67 | 221 | 0.0 | 0.0 | 0.00 | 0.00 | 0.00 | 73 | 1011.8 |
| 20260506035848 | 67 | 221 | 0.0 | 0.0 | 0.00 | 0.00 | 0.00 | 73 | 1011.6 |
| 20260506035346 | 67 | 221 | 0.0 | 0.0 | 0.00 | 0.00 | 0.00 | 73 | 1011.6 |
| 20260506034843 | 67 | 221 | 0.0 | 0.0 | 0.00 | 0.00 | 0.00 | 72 | 1011.7 |
| 20260506034340 | 67 | 221 | 0.0 | 0.0 | 0.00 | 0.00 | 0.00 | 72 | 1011.7 |
| 20260506033837 | 67 | 221 | 0.0 | 0.0 | 0.00 | 0.00 | 0.00 | 71 | 1012.0 |
| 20260506033334 | 68 | 221 | 0.0 | 0.0 | 0.00 | 0.00 | 0.00 | 71 | 1011.8 |
| 20260506032831 | 68 | 221 | 0.0 | 0.0 | 0.00 | 0.00 | 0.00 | 71 | 1012.1 |
| 20260506032328 | 68 | 221 | 0.0 | 0.0 | 0.00 | 0.00 | 0.00 | 71 | 1012.1 |
| 20260506031825 | 68 | 221 | 0.0 | 0.0 | 0.00 | 0.00 | 0.00 | 70 | 1012.2 |
| 20260506031322 | 68 | 221 | 0.0 | 0.0 | 0.00 | 0.00 | 0.00 | 70 | 1012.0 |
| 20260506030819 | 68 | 221 | 0.0 | 0.0 | 0.00 | 0.00 | 0.00 | 69 | 1011.9 |
| 20260506030317 | 68 | 220 | 0.0 | 0.0 | 0.00 | 0.00 | 0.00 | 69 | 1011.7 |
| 20260506025814 | 68 | 222 | 0.0 | 0.0 | 0.00 | 0.00 | 0.00 | 68 | 1011.8 |
| 20260506025310 | 68 | 222 | 0.0 | 0.0 | 0.00 | 0.00 | 0.00 | 69 | 1011.9 |
| 20260506024808 | 68 | 222 | 0.0 | 0.0 | 0.00 | 0.00 | 0.00 | 68 | 1011.9 |
| 20260506024304 | 68 | 223 | 0.0 | 0.0 | 0.00 | 0.00 | 0.00 | 69 | 1012.0 |
| 20260506023800 | 68 | 227 | 0.0 | 0.0 | 0.00 | 0.00 | 0.00 | 69 | 1012.0 |
| 20260506023258 | 68 | 228 | 0.0 | 0.0 | 0.00 | 0.00 | 0.00 | 68 | 1012.2 |
| 20260506022754 | 68 | 224 | 0.0 | 0.0 | 0.00 | 0.00 | 0.00 | 69 | 1012.2 |
| 20260506022252 | 68 | 224 | 0.0 | 0.0 | 0.00 | 0.00 | 0.00 | 69 | 1012.0 |
| 20260506021750 | 69 | 224 | 0.0 | 0.0 | 0.00 | 0.00 | 0.00 | 68 | 1011.8 |
| 20260506021247 | 69 | 223 | 0.0 | 0.0 | 0.00 | 0.00 | 0.00 | 67 | 1011.7 |